This demonstration page uses our WeatherBlox Daily Observations layout. Learn more.

Left ArrowRight Arrow

40.92501, -98.34201

Hourly Observations for June 14, 2015

Temp ( °F °C ) Dew Point ( °F °C ) Humidity (%) Winds ( mph kmh ) Pressure ( in mb ) Visibility ( mi km ) Precip ( " mm )
12:53 am 00:53 Clear 67 19.4 65 18.3 93 93 SSE 6 9 29.87 1011 10 16 0.00 0.00
1:53 am 01:53 Clear 66 18.9 65 18.3 96 96 S 6 9 29.86 1011 10 16 0.00 0.00
2:53 am 02:53 Clear 66 18.9 65 18.3 96 96 SSE 7 11 29.85 1011 10 16 0.00 0.00
3:53 am 03:53 Clear 65 18.3 64 17.8 97 97 SSE 3 6 29.85 1011 9 14 0.00 0.00
4:53 am 04:53 Clear 64 17.8 63 17.2 96 96 SE 5 7 29.84 1011 7 11 0.00 0.00
5:21 am 05:21 Clear with Mist and Fog 63 17.2 62 16.7 97 97 Calm 29.83 1010 2 3 0.00 0.00
5:42 am 05:42 Clear with Mist and Fog 63 17 63 17 100 100 SE 3 6 29.83 1010 3 4 0.00 0.00
5:53 am 05:53 Clear with Mist and Fog 63 17.2 62 16.7 97 97 SSE 5 7 29.84 1011 3 4 0.00 0.00
6:05 am 06:05 Sunny with Mist and Fog 63 17 63 17 100 100 SSE 5 7 29.83 1010 3 5 0.00 0.00
6:15 am 06:15 Sunny with Mist and Fog 64 17.8 63 17.2 96 96 SSE 5 7 29.83 1010 3 4 0.00 0.00
6:25 am 06:25 Partly Cloudy with Mist and Fog 64 17.8 64 17.8 100 100 Calm 29.83 1010 3 4 0.00 0.00
6:30 am 06:30 Mostly Cloudy with Mist and Fog 64 18 64 18 100 100 S 5 7 29.83 1010 2 2 0.00 0.00
6:34 am 06:34 Mostly Cloudy with Fog 64 17.8 64 17.8 100 100 S 5 7 29.83 1010 0 0 0.00 0.00
6:53 am 06:53 Mostly Cloudy with Fog 65 18.3 65 18.3 100 100 SSE 5 7 29.84 1010 0 0 0.00 0.00
7:53 am 07:53 Mostly Cloudy with Fog 66 18.9 66 18.9 100 100 SSE 5 7 29.85 1011 0 0 0.00 0.00
8:23 am 08:23 Cloudy with Mist and Fog 67 19.4 67 19.4 100 100 SSE 6 9 29.83 1010 1 1 0.00 0.00
8:51 am 08:51 Cloudy with Mist and Fog 68 20 66 19 94 94 SSE 7 11 29.83 1010 2 3 0.00 0.00
8:53 am 08:53 Cloudy with Mist and Fog 68 20 67 19.4 96 96 SE 5 7 29.87 1011 2 3 0.00 0.00
9:16 am 09:16 Cloudy with Mist and Fog 68 20 68 20 100 100 SSE 6 9 29.85 1011 3 5 0.00 0.00
9:53 am 09:53 Cloudy with Mist and Fog 69 20.6 68 20 96 96 S 7 11 29.89 1012 4 6 0.00 0.00
10:29 am 10:29 Cloudy with Mist and Fog 70 21.1 68 20 93 93 Calm 29.83 1010 4 6 0.00 0.00
10:53 am 10:53 Cloudy with Mist and Fog 71 21.7 68 20 90 90 Calm 29.89 1012 6 10 0.00 0.00
11:41 am 11:41 Cloudy 73 23 68 20 83 83 VRB 5 7 29.85 1011 10 16 0.00 0.00
11:53 am 11:53 Cloudy 75 23.9 69 20.6 82 82 ESE 3 6 29.90 1013 10 16 0.00 0.00
12:07 pm 12:07 Cloudy 76 24.4 68 20 77 77 Calm 29.85 1011 10 16 0.00 0.00
12:53 pm 12:53 Mostly Cloudy 78 25.6 68 20 71 71 SE 3 6 29.90 1012 10 16 0.00 0.00
1:53 pm 13:53 Cloudy with Light Rain 74 23.3 69 20.6 85 85 WNW 7 11 29.90 1012 3 5 0.02 0.51
2:11 pm 14:11 Cloudy with Light Rain 74 23.3 68 20 82 82 N 5 7 29.83 1010 3 5 0.04 1.02
2:53 pm 14:53 Sunny 79 26.1 69 20.6 72 72 E 7 11 29.85 1011 10 16 0.04 1.02
3:53 pm 15:53 Mostly Cloudy 78 25.6 69 20.6 74 74 E 14 22 29.85 1011 10 16 0.00 0.00
4:53 pm 16:53 Sunny 76 24.4 68 20 77 77 SE 8 13 29.84 1010 10 16 0.00 0.00
5:53 pm 17:53 Sunny 75 23.9 69 20.6 82 82 SSE 5 7 29.85 1011 10 16 0.00 0.00
6:53 pm 18:53 Sunny 74 23.3 68 20 82 82 SE 6 9 29.86 1011 10 16 0.00 0.00
7:53 pm 19:53 Mostly Sunny 73 22.8 67 19.4 81 81 SE 5 7 29.85 1011 10 16 0.00 0.00
8:53 pm 20:53 Sunny 71 21.7 65 18.3 81 81 SSE 7 11 29.88 1012 10 16 0.00 0.00
9:25 pm 21:25 Mostly Cloudy 69 20.6 64 17.8 84 84 S 8 13 29.85 1011 10 16 0.00 0.00
9:46 pm 21:46 Mostly Cloudy 70 21 64 18 83 83 S 14 22 29.85 1011 10 16 0.00 0.00
9:53 pm 21:53 Cloudy 68 20 64 17.8 87 87 S 13 20 29.92 1013 10 16 0.00 0.00
10:53 pm 22:53 Cloudy with Light Rain 68 20 62 16.7 81 81 SSW 8 13 29.94 1014 8 13 0.05 1.27
11:53 pm 23:53 Mostly Cloudy 66 18.9 64 17.8 93 93 N 5 7 29.92 1013 10 16 0.04 1.02

Powered by AerisWeather